FW1723 Weather Reports


time (UTC)temp
C
wind
direction
speed
KPH
gust
KPH
rain 1hr
cm
rain 24hr
cm
rain mn
cm
humidity
%
barometer
mb
20220812004538 18 313 0.0 6.4 0.00 0.00 0.00 55 1021.4
20220812003037 19 308 3.2 9.7 0.00 0.00 0.00 53 1021.2
20220812001536 20 360 4.8 12.9 0.00 0.00 0.00 51 1021.2
20220812000037 20 317 3.2 12.9 0.00 0.00 0.00 50 1021.0
20220811234604 21 307 6.4 16.1 0.00 0.00 0.00 49 1020.9
20220811233057 21 325 6.4 19.3 0.00 0.00 0.00 49 1020.9
20220811231537 21 310 6.4 16.1 0.00 0.00 0.00 48 1020.9
20220811230050 21 309 9.7 17.7 0.00 0.00 0.00 48 1020.8
20220811224600 22 342 6.4 17.7 0.00 0.00 0.00 48 1020.7
20220811223031 22 305 4.8 17.7 0.00 0.00 0.00 46 1020.8
20220811221602 22 313 4.8 12.9 0.00 0.00 0.00 45 1020.8
20220811220142 22 17 6.4 16.1 0.00 0.00 0.00 45 1020.8
20220811214529 22 44 6.4 17.7 0.00 0.00 0.00 44 1020.8
20220811213031 22 30 6.4 19.3 0.00 0.00 0.00 44 1020.8
20220811211536 22 323 9.7 20.9 0.00 0.00 0.00 42 1020.8
20220811210027 22 347 11.3 20.9 0.00 0.00 0.00 42 1020.9
20220811204530 22 338 12.9 27.4 0.00 0.00 0.00 42 1020.7
20220811203037 22 302 8.0 20.9 0.00 0.00 0.00 44 1021.0
20220811201533 22 321 8.0 17.7 0.00 0.00 0.00 46 1020.8
20220811200029 22 5 8.0 20.9 0.00 0.00 0.00 42 1021.0
20220811194551 22 261 6.4 33.8 0.00 0.00 0.00 41 1021.0
20220811193022 22 350 8.0 19.3 0.00 0.00 0.00 43 1021.1
20220811191521 22 337 12.9 19.3 0.00 0.00 0.00 41 1021.2
20220811190024 22 15 12.9 20.9 0.00 0.00 0.00 41 1021.3
20220811184526 21 5 6.4 24.1 0.00 0.00 0.00 45 1021.4
20220811183022 21 360 4.8 19.3 0.00 0.00 0.00 46 1021.3
20220811181516 21 5 8.0 22.5 0.00 0.00 0.00 49 1021.2
20220811180015 21 304 8.0 19.3 0.00 0.00 0.00 48 1021.4
20220811174533 20 36 16.1 25.7 0.00 0.00 0.00 47 1021.5
20220811173010 21 53 4.8 22.5 0.00 0.00 0.00 49 1021.4
20220811171508 20 344 6.4 22.5 0.00 0.00 0.00 49 1021.5
20220811170006 20 49 12.9 22.5 0.00 0.00 0.00 51 1021.7
20220811164503 20 32 8.0 19.3 0.00 0.00 0.00 54 1021.8
20220811163001 20 348 8.0 20.9 0.00 0.00 0.00 53 1021.8
20220811161622 19 313 12.9 22.5 0.00 0.00 0.00 53 1021.8
20220811160110 19 317 8.0 22.5 0.00 0.00 0.00 57 1021.8
20220811154600 18 326 9.7 20.9 0.00 0.00 0.00 57 1021.7
20220811153102 18 349 12.9 20.9 0.00 0.00 0.00 58 1021.7
20220811151548 18 13 11.3 22.5 0.00 0.00 0.00 60 1021.5
20220811150207 18 5 11.3 24.1 0.00 0.00 0.00 61 1021.4
20220811144547 18 355 11.3 24.1 0.00 0.00 0.00 60 1021.3
20220811143040 18 21 11.3 17.7 0.00 0.00 0.00 63 1021.1
20220811141528 17 26 12.9 19.3 0.00 0.00 0.00 68 1021.1
20220811140036 17 38 11.3 25.7 0.00 0.00 0.00 70 1021.0
20220811134538 16 11 9.7 19.3 0.00 0.00 0.00 73 1021.0
20220811133015 16 360 11.3 17.7 0.00 0.00 0.00 75 1021.0
20220811131524 15 360 4.8 19.3 0.00 0.00 0.00 80 1020.9
20220811130024 15 5 9.7 17.7 0.00 0.00 0.00 83 1020.9
20220811124513 13 330 3.2 9.7 0.00 0.00 0.00 90 1020.8
20220811123107 12 229 0.0 4.8 0.00 0.00 0.00 92 1020.8
20220811121553 11 229 0.0 4.8 0.00 0.00 0.00 93 1020.7
20220811120049 11 225 1.6 6.4 0.00 0.00 0.00 94 1020.5
20220811114545 10 249 3.2 6.4 0.00 0.00 0.00 94 1020.5
20220811113102 9 256 1.6 4.8 0.00 0.00 0.00 94 1020.2
20220811111538 9 256 0.0 4.8 0.00 0.00 0.00 94 1020.1
20220811110037 9 256 0.0 4.8 0.00 0.00 0.00 93 1019.9
20220811104546 9 256 1.6 3.2 0.00 0.00 0.00 93 1019.8
20220811103035 9 256 1.6 4.8 0.00 0.00 0.00 93 1019.6
20220811101530 9 256 1.6 4.8 0.00 0.00 0.00 93 1019.4
20220811100046 9 256 3.2 6.4 0.00 0.00 0.00 92 1019.4
20220811094537 9 260 3.2 6.4 0.00 0.00 0.00 92 1019.2
20220811093025 10 261 3.2 4.8 0.00 0.00 0.00 92 1019.2
20220811091525 10 262 1.6 6.4 0.00 0.00 0.00 91 1019.3
20220811090026 10 263 1.6 4.8 0.00 0.00 0.00 91 1019.2
20220811084525 10 263 3.2 4.8 0.00 0.00 0.00 90 1019.2
20220811083025 10 263 0.0 6.4 0.00 0.00 0.00 90 1019.2
20220811081522 10 263 3.2 6.4 0.00 0.00 0.00 89 1019.3
20220811080016 10 263 3.2 4.8 0.00 0.00 0.00 88 1019.3
20220811074529 11 263 1.6 4.8 0.00 0.00 0.00 88 1019.4
20220811073028 11 262 4.8 9.7 0.00 0.00 0.00 87 1019.4
20220811071522 11 265 3.2 4.8 0.00 0.00 0.00 86 1019.5
20220811070016 12 265 1.6 4.8 0.00 0.00 0.00 84 1019.5
20220811064505 12 265 3.2 4.8 0.00 0.00 0.00 84 1019.4
20220811063007 12 265 1.6 3.2 0.00 0.00 0.00 83 1019.5
20220811061501 12 265 0.0 4.8 0.00 0.00 0.00 82 1019.6
20220811060059 13 269 1.6 3.2 0.00 0.00 0.00 81 1019.6
20220811054625 13 270 1.6 3.2 0.00 0.00 0.00 81 1019.6
20220811053055 13 271 1.6 4.8 0.00 0.00 0.00 81 1019.6
20220811051604 13 273 1.6 4.8 0.00 0.00 0.00 80 1019.6
20220811050100 14 279 3.2 4.8 0.00 0.00 0.00 78 1019.5
20220811044549 14 283 0.0 3.2 0.00 0.00 0.00 77 1019.4
20220811043103 15 283 1.6 4.8 0.00 0.00 0.00 76 1019.4
20220811041543 15 283 1.6 3.2 0.00 0.00 0.00 75 1019.4
20220811040051 16 283 1.6 3.2 0.00 0.00 0.00 73 1019.4
20220811034607 16 287 1.6 4.8 0.00 0.00 0.00 72 1019.3
20220811033036 16 287 1.6 6.4 0.00 0.00 0.00 71 1019.2
20220811030106 17 289 0.0 4.8 0.00 0.00 0.00 70 1019.0
20220811024637 18 303 1.6 8.0 0.00 0.00 0.00 69 1019.0
20220811023106 18 267 3.2 6.4 0.00 0.00 0.00 68 1018.7
20220811021558 19 303 0.0 6.4 0.00 0.00 0.00 68 1018.6
20220811020045 19 303 1.6 6.4 0.00 0.00 0.00 67 1018.5
20220811014542 20 317 3.2 9.7 0.00 0.00 0.00 67 1018.3
20220811013100 20 323 4.8 12.9 0.00 0.00 0.00 69 1018.1
20220811011613 21 320 0.0 8.0 0.00 0.00 0.00 69 1017.6
20220811010114 21 294 1.6 8.0 0.00 0.00 0.00 67 1017.4